RADUGA 6 [-]

Last updated on Jan. 28, 2020, 4:41 a.m. UTC

1 11708U 80016A   20027.86188045  .00000137  00000-0  00000-0 0  9994
2 11708  11.1522 312.5955 0001604 352.0721 174.9366  1.00290389 98771
UTC
Height (km)
Latitude
Longitude
Inclination
Orbital Period
UTC large
Height (km)
Speed (km/s)
/
Latitude / Longitude
Inclination (degrees)
Orbital Period (minutes)
Azimuth
Elevation
Range (km)
Doppler Factor
iOS Compass Heading
iOS Angle

Next 30 passes for location: Hong Kong

Rise time Rise Azimuth (degrees) Set time Set Azimuth (degrees) Duration Max altitude (degrees)

No matching passes for this satellites